Briefing drone pour Saint-alban-leysse

Rechercher une autre localisation

Conditions de vol :


Nous sommes le : Jeudi 27 janvier 2022
Il est 21:30 UTC (22:30 LT)

Lever de soleil : 06:36 UTC (07:36 LT)
Coucher de soleil : 17:01 UTC (18:01 LT)

Météo

L'essentiel des conditions de vol

VIGILANCE MÉTÉO FRANCE - Savoie (73)
Pas de vigilances particulieres
METAR de LFLB
LFLB 272100Z AUTO 04007KT 7000 OVC007 M01/M03 Q1033

Date d'émission: 27/01/2022
Heure d'émission: 21:00 UTC
Vent: 040° pour 7 KT (13 km/h)
Visibilité horizontale: 7000 m
Plafond :
- Couvert à 700ft (213m)
Température: -1 °C
Point de rosée: -3 °C
Humidité: 86%
Pression (QNH): 1033 hPa
TAF de LFLB
LFLB 270642Z 2706/2803 CNL

Conditions prévues :

Heure d'émission : Bulletin éffectué le 27 à 06:00 UTC
Prévision : Valide du 27 a 06:00 UTC au 28 a 03:00 UTC
Nuages : à 0ft (0 m)
WEBCAM POUR SAINT-ALBAN-LEYSSE

Réglementation

Voler en sécurité

CARTES AERONAUTIQUE 1/500.000
CARTES VAC (LFLB)
SUP AIP




Chargement des AIP...
NOTAM (SAINT-ALBAN-LEYSSE + Terrain à proximité / FIR )




Chargement des NOTAMS...
CONTACT PREFECTURE 73


Avertissement : Les données mises à disposition sont indicatives. Oxygène Drone ne pourra être tenu responsable de dégâts causés aux biens et aux personnes.